DLH2206 EKCH-EDDF

Flight info

Callsign DLH2206
Flight time 1h 19m
Altitude 40000
Route NEXEN T503 GIMRU DCT MICOS DCT RIMET/N0433F310 T157 KOKEB/N0383F230 T157 KERAX KERAX5D
Aircraft A339/H-SADE1E2E3GHIJ3J5M1P2RWXY/LB2D1

Departure

Time 2026-05-07 19:35
Airport Copenhagen Kastrup Airport (EKCH)

Arrival

Time 2026-05-07 20:54
Airport Frankfurt Main Airport (EDDF)
Time Latitude Longitude Altitude Speed Heading
2026-05-07 18:51 55.62556 12.64886 27 ft 0 kts 64°
2026-05-07 19:22 55.62553 12.64876 26 ft 1 kts 64°
2026-05-07 19:22 55.62549 12.64863 25 ft 1 kts 66°
2026-05-07 19:23 55.62545 12.64851 26 ft 1 kts 77°
2026-05-07 19:23 55.62543 12.64837 32 ft 1 kts 91°
2026-05-07 19:23 55.62542 12.64822 32 ft 1 kts 104°
2026-05-07 19:23 55.62543 12.64808 32 ft 1 kts 118°
2026-05-07 19:24 55.62547 12.64794 31 ft 1 kts 133°
2026-05-07 19:24 55.62552 12.64783 31 ft 1 kts 147°
2026-05-07 19:24 55.62558 12.64774 31 ft 1 kts 160°
2026-05-07 19:24 55.62565 12.64769 31 ft 1 kts 167°
2026-05-07 19:25 55.62573 12.64765 31 ft 1 kts 174°
2026-05-07 19:25 55.62581 12.64763 31 ft 1 kts 177°
2026-05-07 19:29 55.62575 12.64764 31 ft 3 kts 177°
2026-05-07 19:29 55.62534 12.64768 31 ft 9 kts 177°
2026-05-07 19:29 55.62456 12.64775 26 ft 14 kts 177°
2026-05-07 19:29 55.62368 12.64789 28 ft 0 kts 177°
2026-05-07 19:30 55.62363 12.64801 28 ft 3 kts 147°
2026-05-07 19:30 55.62322 12.64879 30 ft 14 kts 156°
2026-05-07 19:30 55.62204 12.64771 27 ft 27 kts 216°
2026-05-07 19:30 55.62036 12.64570 28 ft 36 kts 210°
2026-05-07 19:31 55.61785 12.64539 28 ft 30 kts 170°
2026-05-07 19:31 55.61604 12.64488 29 ft 28 kts 207°
2026-05-07 19:31 55.61402 12.64259 30 ft 41 kts 213°
2026-05-07 19:31 55.61135 12.63943 28 ft 51 kts 213°
2026-05-07 19:32 55.60833 12.63586 27 ft 47 kts 213°
2026-05-07 19:32 55.60579 12.63276 29 ft 28 kts 218°
2026-05-07 19:32 55.60444 12.63128 28 ft 7 kts 177°
2026-05-07 19:32 55.60387 12.63188 28 ft 12 kts 141°
2026-05-07 19:33 55.60343 12.63324 31 ft 12 kts 89°
2026-05-07 19:33 55.60355 12.63361 31 ft 0 kts 57°
2026-05-07 19:34 55.60409 12.63465 28 ft 46 kts 42°
2026-05-07 19:34 55.60898 12.64211 27 ft 136 kts 41°
2026-05-07 19:34 55.61766 12.65530 328 ft 177 kts 40°
2026-05-07 19:35 55.62678 12.66931 1374 ft 171 kts 40°
2026-05-07 19:35 55.63569 12.68333 2355 ft 177 kts 40°
2026-05-07 19:35 55.64532 12.69851 3025 ft 194 kts 40°
2026-05-07 19:35 55.65593 12.71521 3582 ft 214 kts 39°
2026-05-07 19:36 55.66776 12.73296 4066 ft 233 kts 39°
2026-05-07 19:36 55.68073 12.75205 4557 ft 247 kts 39°
2026-05-07 19:36 55.69128 12.77632 5197 ft 252 kts 65°
2026-05-07 19:36 55.69464 12.80673 5890 ft 256 kts 91°
2026-05-07 19:37 55.69083 12.83719 6602 ft 256 kts 106°
2026-05-07 19:37 55.68599 12.86774 7251 ft 259 kts 105°
2026-05-07 19:37 55.68105 12.89903 7730 ft 271 kts 105°
2026-05-07 19:37 55.67538 12.93112 8435 ft 275 kts 113°
2026-05-07 19:38 55.66404 12.95837 9241 ft 279 kts 138°
2026-05-07 19:38 55.64694 12.97478 10035 ft 284 kts 163°
2026-05-07 19:38 55.62687 12.97733 10554 ft 299 kts 186°
2026-05-07 19:38 55.60658 12.96516 10783 ft 323 kts 210°
2026-05-07 19:39 55.58919 12.93830 11081 ft 340 kts 230°
2026-05-07 19:39 55.57472 12.90473 11699 ft 344 kts 233°
2026-05-07 19:39 55.55957 12.87181 12390 ft 347 kts 229°
2026-05-07 19:39 55.54286 12.84076 13069 ft 350 kts 225°
2026-05-07 19:40 55.52502 12.81121 13775 ft 353 kts 223°
2026-05-07 19:40 55.50676 12.78271 14401 ft 356 kts 221°
2026-05-07 19:40 55.48799 12.75407 15036 ft 358 kts 221°
2026-05-07 19:40 55.46908 12.72533 15645 ft 360 kts 221°
2026-05-07 19:41 55.44997 12.69623 16258 ft 363 kts 221°
2026-05-07 19:41 55.43086 12.66704 16883 ft 365 kts 221°
2026-05-07 19:41 55.41164 12.63767 17464 ft 368 kts 221°
2026-05-07 19:41 55.39218 12.60792 18080 ft 371 kts 221°
2026-05-07 19:42 55.37261 12.57807 18658 ft 374 kts 221°
2026-05-07 19:42 55.35288 12.54799 19147 ft 378 kts 221°
2026-05-07 19:42 55.33286 12.51750 19673 ft 381 kts 221°
2026-05-07 19:42 55.31318 12.48755 20177 ft 384 kts 221°
2026-05-07 19:43 55.29255 12.45620 20708 ft 388 kts 221°
2026-05-07 19:43 55.27207 12.42512 21223 ft 391 kts 221°
2026-05-07 19:43 55.25128 12.39363 21739 ft 395 kts 221°
2026-05-07 19:43 55.23043 12.36208 22264 ft 398 kts 221°
2026-05-07 19:44 55.20935 12.33021 22784 ft 402 kts 221°
2026-05-07 19:44 55.18806 12.29807 23309 ft 406 kts 221°
2026-05-07 19:44 55.16662 12.26577 23816 ft 409 kts 221°
2026-05-07 19:44 55.14493 12.23312 24257 ft 413 kts 221°
2026-05-07 19:45 55.12308 12.20027 24720 ft 416 kts 221°
2026-05-07 19:45 55.10099 12.16713 25171 ft 419 kts 221°
2026-05-07 19:45 55.07910 12.13431 25616 ft 422 kts 221°
2026-05-07 19:45 55.05645 12.10043 26074 ft 425 kts 221°
2026-05-07 19:46 55.03418 12.06715 26504 ft 428 kts 221°
2026-05-07 19:46 55.01119 12.03284 26946 ft 431 kts 220°
2026-05-07 19:46 54.98858 11.99917 27373 ft 435 kts 220°
2026-05-07 19:46 54.96556 11.96494 27780 ft 438 kts 220°
2026-05-07 19:47 54.94209 11.93008 27959 ft 447 kts 220°
2026-05-07 19:47 54.91819 11.89463 28068 ft 457 kts 220°
2026-05-07 19:47 54.86886 11.82166 28268 ft 474 kts 220°
2026-05-07 19:48 54.81773 11.74628 28520 ft 486 kts 220°
2026-05-07 19:48 54.76594 11.67021 28815 ft 489 kts 220°
2026-05-07 19:49 54.73993 11.63209 29012 ft 489 kts 220°
2026-05-07 19:49 54.71394 11.59408 29234 ft 489 kts 220°
2026-05-07 19:49 54.68793 11.55610 29341 ft 490 kts 220°
2026-05-07 19:49 54.66189 11.51815 29389 ft 492 kts 220°
2026-05-07 19:50 54.60920 11.44156 29508 ft 494 kts 220°
2026-05-07 19:50 54.55693 11.36585 29720 ft 493 kts 220°
2026-05-07 19:51 54.53069 11.32793 29884 ft 492 kts 220°
2026-05-07 19:51 54.50450 11.29015 30022 ft 491 kts 220°
2026-05-07 19:51 54.47830 11.25241 30152 ft 491 kts 220°
2026-05-07 19:51 54.45179 11.21431 30308 ft 490 kts 219°
2026-05-07 19:52 54.42597 11.17727 30419 ft 490 kts 219°
2026-05-07 19:52 54.39956 11.13944 30558 ft 489 kts 219°
2026-05-07 19:52 54.37340 11.10203 30697 ft 489 kts 219°
2026-05-07 19:52 54.35611 11.07733 30768 ft 489 kts 219°
2026-05-07 19:53 54.32938 11.04153 30883 ft 489 kts 213°
2026-05-07 19:53 54.29958 11.01339 31037 ft 487 kts 203°
2026-05-07 19:53 54.25692 10.99055 31267 ft 485 kts 190°
2026-05-07 19:53 54.23442 10.98448 31367 ft 485 kts 188°
2026-05-07 19:54 54.20109 10.97571 31520 ft 484 kts 188°
2026-05-07 19:54 54.16783 10.96662 31688 ft 484 kts 188°
2026-05-07 19:54 54.13456 10.95738 31835 ft 484 kts 188°
2026-05-07 19:54 54.10142 10.94804 32010 ft 483 kts 188°
2026-05-07 19:55 54.06811 10.93864 32164 ft 483 kts 188°
2026-05-07 19:55 54.03491 10.92930 32333 ft 483 kts 188°
2026-05-07 19:55 54.00177 10.92002 32510 ft 482 kts 188°
2026-05-07 19:55 53.96874 10.91079 32685 ft 482 kts 188°
2026-05-07 19:56 53.93567 10.90155 32867 ft 481 kts 188°
2026-05-07 19:56 53.90250 10.89232 33027 ft 481 kts 188°
2026-05-07 19:56 53.86994 10.88326 33205 ft 480 kts 188°
2026-05-07 19:56 53.83693 10.87410 33369 ft 480 kts 188°
2026-05-07 19:57 53.80361 10.86486 33563 ft 480 kts 189°
2026-05-07 19:57 53.77102 10.85584 33724 ft 479 kts 189°
2026-05-07 19:57 53.73816 10.84676 33896 ft 479 kts 189°
2026-05-07 19:57 53.70531 10.83770 34053 ft 479 kts 189°
2026-05-07 19:58 53.67240 10.82864 34205 ft 479 kts 189°
2026-05-07 19:58 53.63958 10.81961 34352 ft 478 kts 189°
2026-05-07 19:58 53.60665 10.81057 34502 ft 477 kts 189°
2026-05-07 19:58 53.57390 10.80159 34648 ft 477 kts 189°
2026-05-07 19:59 53.54117 10.79264 34789 ft 477 kts 189°
2026-05-07 19:59 53.50838 10.78368 34929 ft 476 kts 189°
2026-05-07 19:59 53.47565 10.77476 35067 ft 476 kts 189°
2026-05-07 19:59 53.44298 10.76588 35206 ft 476 kts 189°
2026-05-07 20:00 53.41030 10.75701 35343 ft 476 kts 189°
2026-05-07 20:00 53.37758 10.74814 35480 ft 475 kts 189°
2026-05-07 20:00 53.34495 10.73930 35593 ft 476 kts 189°
2026-05-07 20:00 53.31210 10.73042 35627 ft 478 kts 189°
2026-05-07 20:01 53.24628 10.71265 35680 ft 480 kts 189°
2026-05-07 20:01 53.18017 10.69486 35734 ft 481 kts 189°
2026-05-07 20:02 53.11443 10.67722 35790 ft 482 kts 189°
2026-05-07 20:02 53.04816 10.65950 35832 ft 482 kts 189°
2026-05-07 20:03 52.98183 10.64183 35913 ft 482 kts 189°
2026-05-07 20:03 52.91549 10.62420 35989 ft 482 kts 189°
2026-05-07 20:04 52.84941 10.60668 36138 ft 481 kts 189°
2026-05-07 20:04 52.78377 10.58934 36240 ft 481 kts 189°
2026-05-07 20:05 52.71722 10.57182 36346 ft 481 kts 190°
2026-05-07 20:05 52.65160 10.55460 36445 ft 481 kts 190°
2026-05-07 20:06 52.58558 10.53733 36558 ft 481 kts 190°
2026-05-07 20:06 52.51946 10.52009 36678 ft 480 kts 190°
2026-05-07 20:07 52.45343 10.50292 36781 ft 480 kts 190°
2026-05-07 20:07 52.38731 10.48578 36883 ft 480 kts 190°
2026-05-07 20:08 52.32128 10.46871 36984 ft 481 kts 190°
2026-05-07 20:08 52.25514 10.45167 37084 ft 480 kts 190°
2026-05-07 20:09 52.18918 10.43472 37180 ft 480 kts 190°
2026-05-07 20:10 52.09003 10.40935 37319 ft 480 kts 190°
2026-05-07 20:10 52.02398 10.39251 37416 ft 480 kts 190°
2026-05-07 20:11 51.95877 10.37595 37502 ft 467 kts 190°
2026-05-07 20:11 51.89479 10.35972 37580 ft 470 kts 190°
2026-05-07 20:11 51.86245 10.35152 37345 ft 469 kts 190°
2026-05-07 20:12 51.83020 10.34336 36841 ft 469 kts 190°
2026-05-07 20:12 51.79771 10.33516 36053 ft 465 kts 190°
2026-05-07 20:12 51.76621 10.32721 35079 ft 465 kts 190°
2026-05-07 20:12 51.73428 10.31916 34012 ft 465 kts 189°
2026-05-07 20:13 51.70223 10.31110 32769 ft 466 kts 189°
2026-05-07 20:13 51.67019 10.30307 31585 ft 467 kts 189°
2026-05-07 20:13 51.63802 10.29501 30437 ft 466 kts 189°
2026-05-07 20:13 51.60598 10.28701 29203 ft 462 kts 189°
2026-05-07 20:14 51.57449 10.27917 27954 ft 456 kts 189°
2026-05-07 20:14 51.54328 10.27141 26763 ft 450 kts 189°
2026-05-07 20:14 51.51249 10.26375 25615 ft 444 kts 190°
2026-05-07 20:14 51.48236 10.25626 24803 ft 432 kts 190°
2026-05-07 20:15 51.45330 10.24905 24400 ft 415 kts 190°
2026-05-07 20:15 51.42455 10.24191 24206 ft 421 kts 190°
2026-05-07 20:15 51.39563 10.23472 24102 ft 420 kts 190°
2026-05-07 20:15 51.36661 10.22752 24099 ft 421 kts 190°
2026-05-07 20:16 51.33769 10.22071 24095 ft 421 kts 188°
2026-05-07 20:16 51.30832 10.21824 24101 ft 422 kts 181°
2026-05-07 20:16 51.27895 10.21806 24099 ft 422 kts 181°
2026-05-07 20:16 51.24955 10.21767 24096 ft 422 kts 182°
2026-05-07 20:17 51.22023 10.21715 24097 ft 422 kts 182°
2026-05-07 20:17 51.19114 10.21650 24096 ft 425 kts 182°
2026-05-07 20:17 51.16167 10.21569 24094 ft 421 kts 182°
2026-05-07 20:17 51.13205 10.21474 24093 ft 421 kts 182°
2026-05-07 20:18 51.10267 10.21365 24092 ft 422 kts 182°
2026-05-07 20:18 51.07374 10.21244 24098 ft 422 kts 183°
2026-05-07 20:18 51.04442 10.21106 24096 ft 422 kts 183°
2026-05-07 20:18 51.01511 10.20955 24088 ft 421 kts 183°
2026-05-07 20:19 50.98580 10.20790 24089 ft 421 kts 183°
2026-05-07 20:19 50.95644 10.20610 24094 ft 421 kts 184°
2026-05-07 20:19 50.92708 10.20417 24087 ft 421 kts 184°
2026-05-07 20:19 50.89792 10.20211 24083 ft 421 kts 184°
2026-05-07 20:20 50.86810 10.19985 24093 ft 436 kts 184°
2026-05-07 20:20 50.83736 10.19734 24129 ft 449 kts 184°
2026-05-07 20:20 50.80612 10.19462 24148 ft 449 kts 184°
2026-05-07 20:20 50.77487 10.19175 24169 ft 449 kts 185°
2026-05-07 20:21 50.74356 10.18873 24186 ft 449 kts 185°
2026-05-07 20:21 50.71233 10.18556 24205 ft 449 kts 185°
2026-05-07 20:21 50.68172 10.18058 24084 ft 448 kts 191°
2026-05-07 20:21 50.65187 10.16736 23857 ft 442 kts 202°
2026-05-07 20:22 50.62497 10.14497 23616 ft 424 kts 216°
2026-05-07 20:22 50.60344 10.11564 23336 ft 407 kts 228°
2026-05-07 20:22 50.58652 10.08032 23061 ft 406 kts 239°
2026-05-07 20:22 50.57428 10.04017 22793 ft 406 kts 251°
2026-05-07 20:23 50.56733 9.99743 22524 ft 403 kts 262°
2026-05-07 20:23 50.56578 9.95366 22255 ft 401 kts 272°
2026-05-07 20:23 50.56964 9.91034 21987 ft 400 kts 283°
2026-05-07 20:23 50.57854 9.86909 21734 ft 398 kts 292°
2026-05-07 20:24 50.58876 9.82854 21469 ft 397 kts 291°
2026-05-07 20:24 50.59727 9.78737 21192 ft 395 kts 281°
2026-05-07 20:24 50.59921 9.74445 20951 ft 394 kts 266°
2026-05-07 20:24 50.59401 9.70272 20704 ft 393 kts 252°
2026-05-07 20:25 50.58166 9.66384 20447 ft 393 kts 236°
2026-05-07 20:25 50.56357 9.63242 20204 ft 394 kts 221°
2026-05-07 20:25 50.54046 9.60950 19947 ft 395 kts 205°
2026-05-07 20:25 50.51437 9.59527 19700 ft 394 kts 199°
2026-05-07 20:26 50.48965 9.57740 19441 ft 391 kts 214°
2026-05-07 20:26 50.46915 9.55001 19210 ft 387 kts 229°
2026-05-07 20:26 50.45423 9.51440 18972 ft 384 kts 246°
2026-05-07 20:26 50.44637 9.47515 18737 ft 382 kts 259°
2026-05-07 20:27 50.44185 9.43427 18502 ft 380 kts 261°
2026-05-07 20:27 50.43709 9.39359 18250 ft 379 kts 259°
2026-05-07 20:27 50.43115 9.35316 17976 ft 378 kts 256°
2026-05-07 20:27 50.42432 9.31343 17709 ft 376 kts 255°
2026-05-07 20:28 50.41555 9.27487 17429 ft 375 kts 244°
2026-05-07 20:28 50.40048 9.24171 17170 ft 376 kts 227°
2026-05-07 20:28 50.37998 9.21655 16905 ft 376 kts 212°
2026-05-07 20:28 50.35773 9.19524 16643 ft 374 kts 217°
2026-05-07 20:29 50.33910 9.16737 16381 ft 370 kts 233°
2026-05-07 20:29 50.32619 9.13278 16079 ft 368 kts 244°
2026-05-07 20:29 50.31517 9.09664 15480 ft 368 kts 245°
2026-05-07 20:29 50.30439 9.06037 14648 ft 365 kts 246°
2026-05-07 20:30 50.29368 9.02455 13808 ft 364 kts 245°
2026-05-07 20:30 50.28286 8.98882 12871 ft 361 kts 245°
2026-05-07 20:30 50.27207 8.95355 11953 ft 359 kts 245°
2026-05-07 20:30 50.26136 8.91877 11404 ft 349 kts 245°
2026-05-07 20:31 50.25099 8.88525 11178 ft 345 kts 245°
2026-05-07 20:31 50.24045 8.85123 11095 ft 346 kts 245°
2026-05-07 20:31 50.22997 8.81741 11081 ft 345 kts 245°
2026-05-07 20:31 50.21951 8.78370 11087 ft 346 kts 245°
2026-05-07 20:32 50.20929 8.74973 11060 ft 345 kts 249°
2026-05-07 20:32 50.20464 8.71348 11089 ft 345 kts 266°
2026-05-07 20:32 50.20069 8.67622 11080 ft 346 kts 252°
2026-05-07 20:32 50.18967 8.64282 11080 ft 347 kts 238°
2026-05-07 20:33 50.17604 8.61183 11080 ft 347 kts 236°
2026-05-07 20:33 50.16273 8.58094 11079 ft 347 kts 238°
2026-05-07 20:33 50.15016 8.54903 11072 ft 346 kts 240°
2026-05-07 20:33 50.13821 8.51628 11075 ft 347 kts 241°
2026-05-07 20:34 50.12670 8.48338 11085 ft 346 kts 242°
2026-05-07 20:34 50.11532 8.45024 11048 ft 346 kts 243°
2026-05-07 20:34 50.10581 8.41581 10831 ft 345 kts 250°
2026-05-07 20:34 50.09764 8.38079 10621 ft 342 kts 250°
2026-05-07 20:35 50.08956 8.34656 10503 ft 329 kts 250°
2026-05-07 20:35 50.08179 8.31404 10354 ft 311 kts 250°
2026-05-07 20:35 50.07685 8.29355 10239 ft 298 kts 250°
2026-05-07 20:35 50.06972 8.26412 10009 ft 282 kts 250°
2026-05-07 20:36 50.06275 8.23552 9862 ft 286 kts 250°
2026-05-07 20:36 50.05344 8.19728 9692 ft 284 kts 250°
2026-05-07 20:36 50.04644 8.16860 9520 ft 283 kts 250°
2026-05-07 20:36 50.04174 8.14935 9232 ft 284 kts 250°
2026-05-07 20:37 50.03472 8.12061 8514 ft 285 kts 250°
2026-05-07 20:37 50.02759 8.09152 7599 ft 291 kts 250°
2026-05-07 20:37 50.02040 8.06205 6712 ft 296 kts 250°
2026-05-07 20:37 50.01306 8.03188 5807 ft 300 kts 250°
2026-05-07 20:38 50.00571 8.00163 5338 ft 288 kts 250°
2026-05-07 20:38 49.99891 7.97357 5083 ft 268 kts 250°
2026-05-07 20:38 49.99246 7.94696 5004 ft 269 kts 250°
2026-05-07 20:38 49.98591 7.91988 5002 ft 267 kts 250°
2026-05-07 20:39 49.97941 7.89287 5002 ft 268 kts 250°
2026-05-07 20:39 49.97289 7.86576 5008 ft 268 kts 250°
2026-05-07 20:39 49.96643 7.83873 5003 ft 268 kts 250°
2026-05-07 20:39 49.95997 7.81163 4998 ft 267 kts 250°
2026-05-07 20:40 49.95354 7.78453 4996 ft 267 kts 250°
2026-05-07 20:40 49.94716 7.75762 5000 ft 268 kts 250°
2026-05-07 20:40 49.93832 7.73208 5006 ft 269 kts 230°
2026-05-07 20:40 49.92352 7.71453 4975 ft 269 kts 205°
2026-05-07 20:41 49.90541 7.70816 4679 ft 270 kts 180°
2026-05-07 20:41 49.88737 7.71427 4228 ft 262 kts 153°
2026-05-07 20:41 49.87358 7.73209 4046 ft 264 kts 125°
2026-05-07 20:41 49.86653 7.75798 4002 ft 260 kts 98°
2026-05-07 20:42 49.86668 7.78601 3994 ft 261 kts 84°
2026-05-07 20:42 49.86798 7.81365 4004 ft 261 kts 86°
2026-05-07 20:42 49.86804 7.84214 3992 ft 261 kts 91°
2026-05-07 20:42 49.86820 7.87032 4005 ft 261 kts 83°
2026-05-07 20:43 49.87257 7.89748 3996 ft 259 kts 68°
2026-05-07 20:43 49.87914 7.92228 3995 ft 236 kts 67°
2026-05-07 20:43 49.88540 7.94423 3994 ft 216 kts 64°
2026-05-07 20:43 49.89142 7.96487 3995 ft 199 kts 66°
2026-05-07 20:44 49.89625 7.98368 3996 ft 181 kts 68°
2026-05-07 20:44 49.90031 8.00071 4000 ft 158 kts 69°
2026-05-07 20:44 49.90412 8.01677 3985 ft 152 kts 69°
2026-05-07 20:44 49.90765 8.03163 4024 ft 148 kts 69°
2026-05-07 20:45 49.91118 8.04642 4013 ft 144 kts 69°
2026-05-07 20:45 49.91466 8.06096 4011 ft 145 kts 68°
2026-05-07 20:45 49.91816 8.07561 4013 ft 145 kts 68°
2026-05-07 20:45 49.92167 8.09031 4012 ft 145 kts 69°
2026-05-07 20:46 49.92518 8.10495 4017 ft 145 kts 68°
2026-05-07 20:46 49.92869 8.11964 4018 ft 145 kts 69°
2026-05-07 20:46 49.93224 8.13454 4017 ft 146 kts 68°
2026-05-07 20:46 49.93573 8.14911 4014 ft 145 kts 69°
2026-05-07 20:47 49.93924 8.16379 4011 ft 146 kts 69°
2026-05-07 20:47 49.94275 8.17849 4012 ft 146 kts 69°
2026-05-07 20:47 49.94628 8.19326 4010 ft 146 kts 69°
2026-05-07 20:47 49.94978 8.20793 4009 ft 146 kts 68°
2026-05-07 20:48 49.95331 8.22271 4005 ft 146 kts 69°
2026-05-07 20:48 49.95682 8.23740 4009 ft 146 kts 68°
2026-05-07 20:48 49.96035 8.25215 4000 ft 146 kts 68°
2026-05-07 20:48 49.96387 8.26693 3930 ft 147 kts 68°
2026-05-07 20:49 49.96738 8.28163 3757 ft 141 kts 69°
2026-05-07 20:49 49.97090 8.29637 3583 ft 146 kts 69°
2026-05-07 20:49 49.97432 8.31071 3391 ft 144 kts 69°
2026-05-07 20:49 49.97779 8.32523 3195 ft 141 kts 69°
2026-05-07 20:50 49.98124 8.33970 2999 ft 145 kts 69°
2026-05-07 20:50 49.98464 8.35394 2815 ft 141 kts 69°
2026-05-07 20:50 49.98808 8.36836 2592 ft 139 kts 69°
2026-05-07 20:50 49.99148 8.38253 2401 ft 142 kts 69°
2026-05-07 20:51 49.99481 8.39654 2176 ft 138 kts 70°
2026-05-07 20:51 49.99804 8.41065 2028 ft 136 kts 71°
2026-05-07 20:51 50.00110 8.42468 1980 ft 139 kts 71°
2026-05-07 20:51 50.00430 8.43861 1831 ft 137 kts 69°
2026-05-07 20:52 50.00770 8.45236 1476 ft 135 kts 69°
2026-05-07 20:52 50.01113 8.46627 1246 ft 138 kts 69°
2026-05-07 20:52 50.01446 8.48005 1001 ft 139 kts 69°
2026-05-07 20:52 50.01768 8.49373 809 ft 135 kts 69°
2026-05-07 20:53 50.02105 8.50749 676 ft 132 kts 68°
2026-05-07 20:53 50.02433 8.52118 587 ft 137 kts 70°
2026-05-07 20:53 50.02758 8.53471 397 ft 131 kts 69°
2026-05-07 20:53 50.03103 8.54830 357 ft 129 kts 68°
2026-05-07 20:54 50.03344 8.55831 362 ft 70 kts 70°
2026-05-07 20:54 50.03454 8.56288 367 ft 31 kts 70°
2026-05-07 20:54 50.03519 8.56573 369 ft 26 kts 70°
2026-05-07 20:54 50.03583 8.56857 367 ft 31 kts 74°
2026-05-07 20:55 50.03581 8.57184 366 ft 15 kts 107°
2026-05-07 20:55 50.03579 8.57195 369 ft 0 kts 107°
2026-05-07 20:55 50.03578 8.57200 369 ft 0 kts 107°
2026-05-07 20:56 50.03574 8.57215 368 ft 7 kts 107°
2026-05-07 20:56 50.03553 8.57309 364 ft 0 kts 110°
2026-05-07 20:58 50.03544 8.57340 369 ft 9 kts 114°
2026-05-07 20:58 50.03455 8.57439 368 ft 24 kts 157°
2026-05-07 20:58 50.03322 8.57621 369 ft 27 kts 116°
2026-05-07 20:58 50.03291 8.57716 372 ft 0 kts 134°
2026-05-07 20:59 50.03286 8.57724 370 ft 4 kts 134°
2026-05-07 20:59 50.03269 8.57789 365 ft 9 kts 89°
2026-05-07 20:59 50.03295 8.57889 370 ft 2 kts 66°
2026-05-07 21:00 50.03293 8.57882 371 ft 4 kts 66°
2026-05-07 21:00 50.03287 8.57862 371 ft 2 kts 65°
2026-05-07 21:00 50.03288 8.57862 371 ft 0 kts 65°
2026-05-07 21:02 50.03286 8.57856 367 ft 1 kts 63°
2026-05-07 21:02 50.03285 8.57851 372 ft 1 kts 63°
2026-05-07 21:02 50.03273 8.57816 368 ft 4 kts 52°
2026-05-07 21:03 50.03242 8.57771 365 ft 8 kts 22°
2026-05-07 21:03 50.03224 8.57763 367 ft 3 kts 358°
2026-05-07 21:03 50.03207 8.57766 365 ft 0 kts 343°
2026-05-07 21:04 50.03208 8.57765 365 ft 0 kts 343°
2026-05-07 21:04 50.03222 8.57759 366 ft 7 kts 342°
2026-05-07 21:05 50.03318 8.57708 371 ft 21 kts 338°
2026-05-07 21:05 50.03388 8.57651 372 ft 1 kts 331°
2026-05-07 21:05 50.03407 8.57637 372 ft 5 kts 336°
2026-05-07 21:05 50.03451 8.57634 370 ft 7 kts 13°
2026-05-07 21:06 50.03490 8.57696 375 ft 9 kts 63°
2026-05-07 21:06 50.03523 8.57813 376 ft 14 kts 68°
2026-05-07 21:06 50.03559 8.57981 374 ft 18 kts 73°
2026-05-07 21:06 50.03509 8.58094 377 ft 16 kts 149°
2026-05-07 21:07 50.03418 8.58141 370 ft 1 kts 183°
2026-05-07 21:07 50.03381 8.58116 375 ft 10 kts 218°
2026-05-07 21:07 50.03350 8.58018 369 ft 0 kts 250°